FW6558 Weather Reports


Display with metric or nautical units.
time (UTC)temp
F
wind
direction
speed
MPH
gust
MPH
rain 1hr
in
rain 24hr
in
rain mn
in
humidity
%
barometer
mb
20260504212306 71 259 6.0 7.0 0.00 0.00 0.00 41 1011.2
20260504211305 70 278 8.0 10.0 0.00 0.00 0.00 42 1016.5
20260504210805 70 278 8.0 10.0 0.00 0.00 0.00 42 1011.5
20260504210306 70 277 7.0 12.0 0.00 0.00 0.00 42 1011.3
20260504205805 69 261 9.0 12.0 0.00 0.00 0.00 42 1011.8
20260504205306 69 245 7.0 9.0 0.00 0.00 0.00 44 1011.7
20260504204806 69 248 8.0 12.0 0.00 0.00 0.00 44 1011.5
20260504204305 68 259 9.0 12.0 0.00 0.00 0.00 44 1012.0
20260504203806 68 260 9.0 14.0 0.00 0.00 0.00 44 1011.9
20260504202805 68 267 8.0 15.0 0.00 0.00 0.00 46 1011.8
20260504202306 68 270 6.0 16.0 0.00 0.00 0.00 44 1012.1
20260504201805 68 262 13.0 14.0 0.00 0.00 0.00 45 1011.9
20260504201305 68 281 7.0 14.0 0.00 0.00 0.00 45 1012.6
20260504200306 69 256 9.0 13.0 0.00 0.00 0.00 44 1012.7
20260504195805 67 249 12.0 13.0 0.00 0.00 0.00 47 1017.4
20260504195305 67 249 12.0 13.0 0.00 0.00 0.00 47 1012.7
20260504194806 67 249 12.0 16.0 0.00 0.00 0.00 47 1012.8
20260504194306 67 228 11.0 14.0 0.00 0.00 0.00 46 1012.6
20260504193805 69 231 8.0 10.0 0.00 0.00 0.00 44 1012.5
20260504193306 69 260 8.0 13.0 0.00 0.00 0.00 44 1012.4
20260504192805 69 277 10.0 13.0 0.00 0.00 0.00 45 1012.7
20260504192305 69 245 7.0 9.0 0.00 0.00 0.00 45 1012.7
20260504191805 69 232 6.0 13.0 0.00 0.00 0.00 44 1012.8
20260504191306 68 246 8.0 14.0 0.00 0.00 0.00 47 1012.7
20260504190805 68 261 6.0 14.0 0.00 0.00 0.00 48 1013.1
20260504190305 68 246 7.0 10.0 0.00 0.00 0.00 46 1013.2
20260504185805 67 269 6.0 16.0 0.00 0.00 0.00 47 1013.3
20260504185306 67 284 13.0 16.0 0.00 0.00 0.00 48 1013.2
20260504184805 68 228 7.0 15.0 0.00 0.00 0.00 46 1013.3
20260504184305 66 257 3.0 14.0 0.00 0.00 0.00 49 1013.4
20260504183805 67 262 10.0 14.0 0.00 0.00 0.00 49 1013.4
20260504183305 67 279 7.0 8.0 0.00 0.00 0.00 48 1013.6
20260504182805 66 259 6.0 17.0 0.00 0.00 0.00 49 1013.7
20260504181805 65 274 6.0 9.0 0.00 0.00 0.00 51 1013.9
20260504180805 64 236 7.0 9.0 0.00 0.00 0.00 51 1018.4
20260504180305 64 236 7.0 9.0 0.00 0.00 0.00 51 1018.5
20260504175806 64 236 7.0 10.0 0.00 0.00 0.00 51 1014.5
20260504174805 64 267 10.0 15.0 0.00 0.00 0.00 51 1014.6
20260504174305 63 259 8.0 15.0 0.00 0.00 0.00 51 1014.5
20260504173805 63 246 9.0 20.0 0.00 0.00 0.00 51 1014.6
20260504173305 63 264 15.0 20.0 0.00 0.00 0.00 51 1014.8
20260504172805 64 239 10.0 18.0 0.00 0.00 0.00 51 1014.8
20260504172305 63 253 7.0 20.0 0.00 0.00 0.00 52 1014.8
20260504171305 63 247 8.0 20.0 0.00 0.00 0.00 51 1014.8
20260504170805 63 266 13.0 16.0 0.00 0.00 0.00 51 1014.9
20260504170305 63 259 14.0 16.0 0.00 0.00 0.00 50 1015.0
20260504160305 60 306 16.0 21.0 0.00 0.00 0.00 54 1016.2
20260504150805 55 270 8.0 22.0 0.00 0.00 0.00 62 1017.8
20260504150304 55 274 14.0 25.0 0.00 0.00 0.00 62 1017.8
20260504141304 57 257 22.0 35.0 0.00 0.00 0.00 50 1018.0
20260504140805 57 269 20.0 25.0 0.00 0.00 0.00 49 1017.8
20260504140304 57 243 13.0 22.0 0.00 0.00 0.00 47 1018.0
20260504130804 53 270 4.0 10.0 0.00 0.00 0.00 53 1018.4
20260504130304 53 311 2.0 3.0 0.00 0.00 0.00 59 1018.7
20260504120304 48 58 2.0 2.0 0.00 0.00 0.00 60 1018.7
20260504110303 47 256 0.0 5.0 0.00 0.00 0.00 60 1018.9
20260504100304 46 225 0.0 2.0 0.00 0.00 0.00 62 1019.2
20260504081808 47 278 6.0 9.0 0.00 0.00 0.00 56 1018.8
20260504081307 47 270 3.0 7.0 0.00 0.00 0.00 56 1018.7
20260504080807 46 260 4.0 6.0 0.00 0.00 0.00 59 1019.1
20260504080307 46 263 5.0 7.0 0.00 0.00 0.00 58 1019.0
20260504050306 43 250 0.0 1.0 0.00 0.00 0.00 56 1020.5
20260504045807 44 288 0.0 1.0 0.00 0.00 0.00 55 1020.5
20260504045307 44 247 0.0 0.0 0.00 0.00 0.00 52 1020.5
20260504044807 44 247 0.0 0.0 0.00 0.00 0.00 53 1020.1
20260504044307 45 247 0.0 1.0 0.00 0.00 0.00 53 1020.2
20260504043807 45 247 1.0 2.0 0.00 0.00 0.00 52 1020.1
20260504043307 44 251 1.0 2.0 0.00 0.00 0.00 53 1020.1
20260504042807 44 252 2.0 2.0 0.00 0.00 0.00 54 1020.2
20260504042307 44 238 1.0 2.0 0.00 0.00 0.00 53 1020.3
20260504041807 44 235 1.0 2.0 0.00 0.00 0.00 53 1020.0
20260504041307 46 170 0.0 0.0 0.00 0.00 0.00 48 1019.8
20260504040806 46 170 0.0 0.0 0.00 0.00 0.00 46 1019.6
20260504040307 47 170 0.0 1.0 0.00 0.00 0.00 44 1019.6
20260504035807 47 170 1.0 1.0 0.00 0.00 0.00 44 1019.5
20260504034807 46 227 1.0 2.0 0.00 0.00 0.00 47 1019.9
20260504034307 46 179 0.0 0.0 0.00 0.00 0.00 46 1019.5
20260504033807 46 179 0.0 2.0 0.00 0.00 0.00 46 1019.6
20260504033307 45 213 2.0 2.0 0.00 0.00 0.00 49 1020.0
20260504032806 44 216 1.0 3.0 0.00 0.00 0.00 50 1020.4
20260504032306 43 213 2.0 3.0 0.00 0.00 0.00 55 1020.7
20260504030807 46 139 0.0 1.0 0.00 0.00 0.00 48 1019.9
20260504030306 45 139 1.0 1.0 0.00 0.00 0.00 47 1020.0
20260504025806 45 139 0.0 0.0 0.00 0.00 0.00 49 1019.8
20260504025306 45 139 0.0 0.0 0.00 0.00 0.00 48 1019.7
20260504024806 45 139 0.0 0.0 0.00 0.00 0.00 49 1020.0
20260504024306 46 139 0.0 1.0 0.00 0.00 0.00 49 1019.8
20260504023807 45 139 1.0 1.0 0.00 0.00 0.00 48 1019.8
20260504022807 45 139 1.0 1.0 0.00 0.00 0.00 49 1020.1
20260504022306 46 244 0.0 1.0 0.00 0.00 0.00 47 1019.6
20260504020806 46 241 2.0 3.0 0.00 0.00 0.00 46 1019.7
20260504020306 47 264 2.0 5.0 0.00 0.00 0.00 47 1019.5
20260504015806 47 262 3.0 5.0 0.00 0.00 0.00 45 1019.1
20260504015307 48 259 2.0 3.0 0.00 0.00 0.00 44 1018.9
20260504014807 48 251 2.0 3.0 0.00 0.00 0.00 43 1018.8
20260504014307 47 242 3.0 6.0 0.00 0.00 0.00 44 1019.0
20260504013807 47 254 4.0 6.0 0.00 0.00 0.00 45 1019.2
20260504013306 48 271 5.0 6.0 0.00 0.00 0.00 43 1018.9
20260504012806 49 253 1.0 3.0 0.00 0.00 0.00 43 1018.8
20260504012306 49 252 2.0 3.0 0.00 0.00 0.00 41 1018.6
20260504011806 49 245 2.0 5.0 0.00 0.00 0.00 40 1018.6
20260504011307 49 242 2.0 3.0 0.00 0.00 0.00 41 1018.4
20260504010306 49 244 2.0 5.0 0.00 0.00 0.00 41 1018.3
20260504005307 50 260 3.0 5.0 0.00 0.00 0.00 39 1018.0
20260504004807 50 236 3.0 8.0 0.00 0.00 0.00 40 1018.1
20260504004306 49 248 5.0 7.0 0.00 0.00 0.00 40 1017.9
20260504003806 49 275 6.0 7.0 0.00 0.00 0.00 40 1018.1
20260504003307 50 261 3.0 5.0 0.00 0.00 0.00 40 1017.9
20260504002806 51 264 3.0 5.0 0.00 0.00 0.00 39 1017.4
20260504002306 51 252 3.0 5.0 0.00 0.00 0.00 38 1017.4
20260504001806 51 269 3.0 5.0 0.00 0.00 0.00 37 1017.6
20260504001306 51 267 5.0 5.0 0.00 0.00 0.00 38 1017.5
20260504000806 52 269 5.0 5.0 0.00 0.00 0.00 38 1017.4
20260504000306 52 264 3.0 6.0 0.00 0.00 0.00 38 1017.2
20260503235806 53 260 3.0 7.0 0.00 0.00 0.00 38 1017.3
20260503235306 53 285 4.0 7.0 0.00 0.00 0.00 36 1017.0
20260503234806 54 284 5.0 7.0 0.00 0.00 0.00 34 1017.1
20260503234306 55 282 5.0 7.0 0.00 0.00 0.00 36 1016.9
20260503233806 55 298 6.0 9.0 0.00 0.00 0.00 33 1016.5
20260503233306 55 267 8.0 9.0 0.00 0.00 0.00 33 1016.7
20260503232806 56 297 6.0 7.0 0.00 0.00 0.00 32 1016.4
20260503231806 56 272 7.0 12.0 0.00 0.00 0.00 32 1016.0
20260503231306 57 269 6.0 10.0 0.00 0.00 0.00 33 1016.1
20260503230805 57 304 6.0 15.0 0.00 0.00 0.00 31 1016.1
20260503230306 57 280 10.0 15.0 0.00 0.00 0.00 29 1015.9
20260503225806 58 273 11.0 15.0 0.00 0.00 0.00 28 1015.6
20260503225306 57 271 7.0 8.0 0.00 0.00 0.00 31 1015.9
20260503224806 58 300 5.0 8.0 0.00 0.00 0.00 31 1015.9
20260503224306 58 278 5.0 9.0 0.00 0.00 0.00 32 1015.7
20260503223306 57 309 5.0 10.0 0.00 0.00 0.00 30 1015.8
20260503222806 58 298 6.0 10.0 0.00 0.00 0.00 31 1015.8
20260503222306 59 295 6.0 8.0 0.00 0.00 0.00 29 1015.6
20260503221805 59 278 6.0 13.0 0.00 0.00 0.00 30 1015.6
20260503221305 58 292 3.0 12.0 0.00 0.00 0.00 30 1016.0
20260503220305 59 305 6.0 13.0 0.00 0.00 0.00 28 1015.8
20260503215806 58 273 8.0 17.0 0.00 0.00 0.00 28 1015.9
20260503215305 59 272 10.0 17.0 0.00 0.00 0.00 27 1015.7
20260503214805 58 246 6.0 13.0 0.00 0.00 0.00 26 1015.9
20260503214306 59 290 6.0 9.0 0.00 0.00 0.00 27 1015.9
20260503213806 58 310 5.0 12.0 0.00 0.00 0.00 28 1016.1
20260503213305 59 298 5.0 12.0 0.00 0.00 0.00 29 1015.8
20260503212805 59 289 7.0 10.0 0.00 0.00 0.00 28 1015.7